Weather in Ungurkuy

Russia / Republic of Buryatia     50°18′08″N   107°09′05″E
temp.,
°C
wind,
m/s
gust,
m/s
humid.,
%
clouds,
%
prec.,
mm/h
press.,
hPa
HPBL,
m
9 march, tue
tue923:00−6ese12800 0.0 102621
02:00−7se22810 0.0 102622
05:00−7se33840 0.0 102331
08:00−7se33810 0.0 102240
11:000sse34683 0.0 1018228
14:00+2sse376428 0.0 1015429
17:00+2wnw016996 0.0 1016100
20:00−5nnw228786 0.0 102221
10 march, wed
wed1023:00−7n128731 0.0 102621
02:00−8ne118616 0.0 102921
05:00−8ese128529 0.0 103021
08:00−8ese118631 0.0 103121
11:00−1ssw11710 0.0 1029293
14:00+1s23710 0.0 1026414
17:00+1s12720 0.0 1024169
20:00−4ese11810 0.0 102521
11 march, thu
thu1123:00−6se11830 0.0 102621
02:00−6se22860 0.0 102521
05:00−6se22860 0.0 102621
08:00−6se22843 0.0 102722
11:000sse23680 0.0 1025241
14:00+2sse24650 0.0 1023418
17:00+2sse24660 0.0 1022274
20:00−2se22730 0.0 102424
12 march, fri
fri1223:00−3se33770 0.0 102529
02:00−4se33770 0.0 102536
05:00−4se33770 0.0 102441
08:00−4se44710 0.0 102382
11:00+3sse410540 0.0 1019448
14:00+5s385750 0.0 1017525
17:00+4s2659100 0.0 1016190
20:00−1n1172100 0.0 101822
13 march, sat
sat1323:00−3sse11710 0.0 101921
02:00−3se22738 0.0 101721
05:00−3se337645 0.0 101536
08:00−3se237231 0.0 101340
11:00+3sse355433 0.0 1009220
14:00+7sse374450 0.0 1003416
17:00+7se254882 0.0 998160
20:00+3se125788 0.0 99923